Miscellaneous Local Product
Issued by NWS North Platte, NE

Home | Current Version | Previous Version | Graphics & Text | Print | Product List | Glossary On
Versions: 1 2 3 4 5 6 7 8 9 10 11 12 13 14 15 16 17 18 19 20 21 22 23 24 25 26 27 28 29 30 31 32 33 34 35 36 37 38 39 40 41 42 43 44 45 46 47 48 49 50
873
AXUS43 KLBF 221810
MISLBF


WESTERN AND NORTH CENTRAL NEBRASKA HOURLY WEATHER ROUNDUP
NATIONAL WEATHER SERVICE NORTH PLATTE NE
100 PM CDT MON AUG 22 2016

NOTE: "FAIR" INDICATES FEW OR NO CLOUDS BELOW 12,000 FEET WITH NO
SIGNIFICANT WEATHER AND/OR OBSTRUCTIONS TO VISIBILITY.

NOTE: STATIONS NOT REPORTING VARIABLES SUCH AS SKY/WEATHER OR
PRESSURE ARE PROVIDED BY RAWS AND APRS NETWORKS AND ARE NOT UNDER
NATIONAL WEATHER SERVICE QUALITY CONTROL.

...OBSERVATIONS IN AND NEAR THE EASTERN PANHANDLE OF NEBRASKA...

CITY           SKY/WX    TMP DP  RH WIND       PRES   REMARKS
PINE RIDGE     SUNNY     89  57  33 S14       29.78F
CHADRON        SUNNY     94  38  14 SW6       29.76F
ALLIANCE       SUNNY     92  48  22 S18       29.85F
SIDNEY         CLOUDY    90  45  21 S21G29    29.92F
$$

...OBSERVATIONS IN NORTHERN NEBRASKA AND FAR SOUTHERN SOUTH DAKOTA...

CITY           SKY/WX    TMP DP  RH WIND       PRES   REMARKS
WINNER         FAIR      90  63  40 S22G35    29.74F HX  91
VALENTINE      SUNNY     87  57  35 S23       29.79F
THEDFORD       SUNNY     86  60  41 S21G26    29.87F
AINSWORTH      SUNNY     85  61  43 S21G29    29.83S
O`NEILL        SUNNY     86  56  35 S21G29    29.85F
ORD            SUNNY     83  59  44 S18G28    29.89F
BROKEN BOW     SUNNY     83  62  49 S15G26    29.90F
$$

...OBSERVATIONS IN SOUTHWEST NEBRASKA AND FAR NORTHEAST COLORADO...

CITY           SKY/WX    TMP DP  RH WIND       PRES   REMARKS
WRAY           FAIR      88  50  27 S21G31    29.92F
HOLYOKE        FAIR      84  55  37 S14       29.91F
IMPERIAL       MOSUNNY   86  54  33 S20G28    29.90F
OGALLALA       CLOUDY    89  50  26 S17G24    29.88F
NORTH PLATTE   SUNNY     88  60  38 S20G26    29.88F
MCCOOK         SUNNY     91  57  31 S24G31    29.91F
LEXINGTON      SUNNY     87  60  40 S23       29.91F
GOTHENBURG       N/A     78  58  49 S10         N/A
CALLAWAY         N/A     76  65  70 S16         N/A
$$

...OBSERVATIONS IN CENTRAL LINCOLN COUNTY AREA...

CITY           SKY/WX    TMP DP  RH WIND       PRES   REMARKS
N.P. AIRPORT   SUNNY     88  60  38 S20G26    29.88F
$$

...SOME OBSERVATIONS FROM AROUND THE REGION...

CITY           SKY/WX    TMP DP  RH WIND       PRES   REMARKS
DENVER         CLOUDY    87  36  16 E8        29.98F
LARAMIE        SUNNY     80  26  13 NW7       30.11F
CHEYENNE       SUNNY     85  27  12 N6        30.02F
SCOTTSBLUFF    SUNNY     87  46  24 W7        29.86F
RAPID CITY     SUNNY     94  53  25 SE12      29.69F HX  91
BISMARCK       SUNNY     77  62  59 SE10      29.67F
PIERRE         SUNNY     91  65  41 S15       29.66F HX  93
SIOUX FALLS    SUNNY     84  63  49 S25       29.85F
OMAHA          SUNNY     81  59  47 S18G29    30.02F
GRAND ISLAND   SUNNY     83  59  44 S24G30    29.96F
KANSAS CITY    SUNNY     80  56  43 S13G22    30.12F
WICHITA        MOSUNNY   80  58  46 S12       30.09F
OKLAHOMA CITY  PTSUNNY   85  62  46 S14       30.11F
DALLAS         CLOUDY    81  74  79 S6        30.09F
AMARILLO       MOSUNNY   82  60  47 S16G23    30.13F
DODGE CITY     PTSUNNY   85  57  38 S18G25    30.04F
HAYS           MOSUNNY   84  57  39 S21G26    30.00F
GOODLAND       CLOUDY    85  55  35 S23G38    29.95F
$$




USA.gov is the U.S. government's official web portal to all federal, state and local government web resources and services.